Simultaneous Nadir Overpasses (SNOs) Predictions

Prediction of SNOs between GOES-16 and NOAA-21 Satellite Orbit:

Table of predicted SNOs for the next 14.0 days since TLE Epoch: 1/19/2024
Index Date Time (GOES-16) GOES-16 Lat,Lon NOAA-21 Lat,Lon Distance(km) Time Diff (sec)
1 01/20/2024 06:22:16 -0.05, -75.21 -0.07, -75.04 18.94 80
2 01/22/2024 18:25:25 0.04, -75.21 -0.08, -75.80 66.97 80
3 01/23/2024 18:09:20 0.03, -75.22 0.94, -71.27 450.66 80
4 01/25/2024 06:31:06 -0.03, -75.23 0.24, -76.53 147.85 80
5 01/26/2024 06:09:41 -0.03, -75.24 -0.78, -72.00 370.03 80
6 01/27/2024 18:31:35 0.03, -75.25 -0.43, -77.29 231.85 80
7 01/28/2024 18:15:30 0.03, -75.27 0.60, -72.75 286.77 80
8 01/30/2024 06:37:16 -0.03, -75.30 0.56, -78.02 309.69 80
9 01/31/2024 06:15:50 -0.03, -75.31 -0.47, -73.48 209.17 80
10 02/01/2024 18:37:45 0.03, -75.34 -0.73, -78.77 391.66 80
11 02/02/2024 18:21:38 0.03, -75.36 0.25, -74.23 127.64 80
